VK6JI-11 Weather Reports


time (UTC)temp
F
wind
direction
speed
knots
gust
knots
rain 1hr
in
rain 24hr
in
rain mn
in
humidity
%
barometer
mb
20260506150717 58 87 0.9 1.7 0.00 0.00 0.00 69 1028.9
20260506150516 58 87 0.9 1.7 0.00 0.00 0.00 69 1028.9
20260506150316 59 87 0.9 1.7 0.00 0.00 0.00 69 1028.9
20260506150115 58 87 0.0 1.7 0.00 0.00 0.00 69 1029.0
20260506145915 58 87 0.9 1.7 0.00 0.00 0.00 69 1029.0
20260506145714 58 87 0.9 2.6 0.00 0.00 0.00 69 1029.0
20260506145514 58 86 0.9 2.6 0.00 0.00 0.00 69 1029.0
20260506145311 58 86 0.9 2.6 0.00 0.00 0.00 69 1029.0
20260506145110 58 86 0.9 2.6 0.00 0.00 0.00 69 1029.0
20260506144910 58 86 0.9 2.6 0.00 0.00 0.00 69 1029.0
20260506144709 58 87 0.0 0.0 0.00 0.00 0.00 69 1028.9
20260506144508 58 87 0.0 0.0 0.00 0.00 0.00 69 1029.0
20260506144308 58 87 0.0 0.0 0.00 0.00 0.00 69 1029.0
20260506144108 59 86 0.0 0.0 0.00 0.00 0.00 69 1029.0
20260506143908 59 86 0.0 0.0 0.00 0.00 0.00 68 1029.0
20260506143707 59 86 0.0 0.0 0.00 0.00 0.00 68 1029.0
20260506143506 59 86 0.0 0.0 0.00 0.00 0.00 68 1028.9
20260506143307 59 86 0.0 0.0 0.00 0.00 0.00 68 1028.9
20260506143106 59 86 0.0 0.0 0.00 0.00 0.00 68 1029.0
20260506142908 59 86 0.0 0.9 0.00 0.00 0.00 68 1029.0
20260506142706 59 86 0.0 0.9 0.00 0.00 0.00 68 1029.0
20260506142505 59 86 0.0 1.7 0.00 0.00 0.00 68 1029.0
20260506142306 59 86 0.0 1.7 0.00 0.00 0.00 68 1029.0
20260506142104 59 86 0.0 1.7 0.00 0.00 0.00 68 1029.0
20260506141905 59 86 0.0 1.7 0.00 0.00 0.00 68 1029.0
20260506141705 59 86 0.9 1.7 0.00 0.00 0.00 68 1029.0
20260506141506 59 86 0.0 1.7 0.00 0.00 0.00 68 1029.0
20260506141305 59 86 0.0 1.7 0.00 0.00 0.00 68 1029.0
20260506141102 59 86 0.9 1.7 0.00 0.00 0.00 68 1029.0
20260506140901 59 86 0.9 1.7 0.00 0.00 0.00 68 1029.1
20260506140700 59 86 0.9 1.7 0.00 0.00 0.00 68 1029.1
20260506140500 59 86 0.9 1.7 0.00 0.00 0.00 68 1029.0
20260506140300 59 86 0.9 1.7 0.00 0.00 0.00 68 1029.0
20260506140100 60 86 0.0 1.7 0.00 0.00 0.00 68 1029.1
20260506135857 59 86 0.9 1.7 0.00 0.00 0.00 68 1029.0
20260506135657 60 86 0.9 2.6 0.00 0.00 0.00 68 1028.9
20260506135457 59 86 0.9 2.6 0.00 0.00 0.00 68 1028.9
20260506135257 59 86 0.0 3.5 0.00 0.00 0.00 68 1028.9
20260506135057 59 77 0.9 3.5 0.00 0.00 0.00 68 1028.9
20260506134858 59 76 0.9 3.5 0.00 0.00 0.00 68 1028.9
20260506134657 59 76 0.9 3.5 0.00 0.00 0.00 68 1028.9
20260506134457 59 76 0.9 3.5 0.00 0.00 0.00 68 1028.9
20260506134257 59 97 0.9 1.7 0.00 0.00 0.00 68 1028.8
20260506134056 59 97 0.9 1.7 0.00 0.00 0.00 69 1028.8
20260506133856 59 97 0.0 1.7 0.00 0.00 0.00 69 1028.9
20260506133657 59 96 0.0 1.7 0.00 0.00 0.00 69 1028.9
20260506133454 59 96 0.0 1.7 0.00 0.00 0.00 69 1028.9
20260506133254 59 96 0.9 1.7 0.00 0.00 0.00 69 1028.9
20260506133053 59 96 0.0 1.7 0.00 0.00 0.00 69 1028.8
20260506132853 59 96 0.0 1.7 0.00 0.00 0.00 69 1028.9
20260506132654 59 96 0.0 2.6 0.00 0.00 0.00 69 1028.8
20260506132454 59 96 0.9 2.6 0.00 0.00 0.00 69 1028.8
20260506132253 59 96 0.9 2.6 0.00 0.00 0.00 70 1028.8
20260506132054 59 87 0.9 2.6 0.00 0.00 0.00 70 1028.7
20260506131853 59 87 0.9 2.6 0.00 0.00 0.00 70 1028.7
20260506131653 59 87 0.0 1.7 0.00 0.00 0.00 70 1028.7
20260506131453 59 87 0.9 1.7 0.00 0.00 0.00 71 1028.7
20260506131253 59 87 0.0 1.7 0.00 0.00 0.00 71 1028.7
20260506131053 59 87 0.0 1.7 0.00 0.00 0.00 71 1028.7
20260506130853 59 87 0.0 0.9 0.00 0.00 0.00 71 1028.6
20260506130653 59 87 0.0 0.9 0.00 0.00 0.00 71 1028.6
20260506130453 59 87 0.0 0.9 0.00 0.00 0.00 71 1028.6
20260506130253 59 87 0.0 0.9 0.00 0.00 0.00 71 1028.6
20260506130053 59 87 0.0 0.9 0.00 0.00 0.00 71 1028.6
20260506125853 59 87 0.0 0.9 0.00 0.00 0.00 71 1028.6
20260506125653 59 87 0.0 1.7 0.00 0.00 0.00 71 1028.5
20260506125453 59 87 0.0 1.7 0.00 0.00 0.00 71 1028.6
20260506125253 59 87 0.0 1.7 0.00 0.00 0.00 71 1028.6
20260506125053 59 87 0.0 1.7 0.00 0.00 0.00 72 1028.6
20260506124853 59 87 0.9 1.7 0.00 0.00 0.00 72 1028.5
20260506124653 59 89 0.0 1.7 0.00 0.00 0.00 72 1028.5
20260506124453 59 87 0.0 1.7 0.00 0.00 0.00 72 1028.5
20260506124253 59 87 0.0 1.7 0.00 0.00 0.00 72 1028.6
20260506124053 59 87 0.0 1.7 0.00 0.00 0.00 72 1028.5
20260506123853 59 87 0.0 0.9 0.00 0.00 0.00 72 1028.5
20260506123652 59 87 0.0 0.9 0.00 0.00 0.00 72 1028.5
20260506123452 59 87 0.0 0.9 0.00 0.00 0.00 72 1028.5
20260506123253 59 87 0.0 0.0 0.00 0.00 0.00 72 1028.4
20260506123052 59 87 0.0 0.0 0.00 0.00 0.00 72 1028.4
20260506122852 59 87 0.0 0.9 0.00 0.00 0.00 72 1028.4
20260506122652 59 87 0.0 0.9 0.00 0.00 0.00 72 1028.5
20260506122452 59 89 0.0 0.9 0.00 0.00 0.00 72 1028.5
20260506122252 59 87 0.0 0.9 0.00 0.00 0.00 72 1028.4
20260506122052 59 87 0.0 0.9 0.00 0.00 0.00 72 1028.4
20260506121852 59 87 0.0 0.9 0.00 0.00 0.00 72 1028.4
20260506121652 59 87 0.0 0.0 0.00 0.00 0.00 72 1028.4
20260506121451 59 87 0.0 0.0 0.00 0.00 0.00 71 1028.4
20260506121250 59 87 0.0 0.0 0.00 0.00 0.00 71 1028.3
20260506121049 60 87 0.0 0.0 0.00 0.00 0.00 71 1028.3
20260506120846 60 87 0.0 0.0 0.00 0.00 0.00 71 1028.2
20260506120644 60 87 0.0 0.0 0.00 0.00 0.00 71 1028.3
20260506120443 60 87 0.0 0.0 0.00 0.00 0.00 71 1028.2
20260506120242 60 87 0.0 0.0 0.00 0.00 0.00 70 1028.3
20260506120041 60 87 0.0 0.0 0.00 0.00 0.00 70 1028.2
20260506115831 60 87 0.0 0.0 0.00 0.00 0.00 70 1028.3
20260506115631 60 87 0.0 0.0 0.00 0.00 0.00 70 1028.2
20260506115431 60 87 0.0 0.0 0.00 0.00 0.00 70 1028.1
20260506115231 60 87 0.0 0.0 0.00 0.00 0.00 70 1028.2
20260506115031 60 87 0.0 0.0 0.00 0.00 0.00 70 1028.2
20260506114831 61 87 0.0 0.0 0.00 0.00 0.00 69 1028.2
20260506114631 61 87 0.0 0.0 0.00 0.00 0.00 69 1028.1
20260506114431 61 87 0.0 0.0 0.00 0.00 0.00 69 1028.1
20260506114231 61 87 0.0 0.0 0.00 0.00 0.00 69 1028.1
20260506114031 61 87 0.0 0.0 0.00 0.00 0.00 69 1028.1
20260506113830 61 87 0.0 0.0 0.00 0.00 0.00 69 1028.0
20260506113631 61 87 0.0 0.0 0.00 0.00 0.00 69 1028.0
20260506113432 61 87 0.0 0.0 0.00 0.00 0.00 69 1028.0
20260506113230 61 87 0.0 0.0 0.00 0.00 0.00 68 1028.0
20260506113031 61 87 0.0 0.0 0.00 0.00 0.00 68 1028.1
20260506112823 61 87 0.0 0.9 0.00 0.00 0.00 68 1028.1
20260506112623 62 87 0.0 0.9 0.00 0.00 0.00 68 1028.1
20260506112422 62 87 0.0 0.9 0.00 0.00 0.00 68 1028.0
20260506112222 62 87 0.0 0.9 0.00 0.00 0.00 68 1028.0
20260506112021 62 87 0.0 0.9 0.00 0.00 0.00 68 1028.0
20260506111822 62 87 0.0 0.9 0.00 0.00 0.00 68 1028.0
20260506111620 62 87 0.0 0.9 0.00 0.00 0.00 68 1028.0
20260506111420 62 87 0.0 0.9 0.00 0.00 0.00 67 1028.0
20260506111220 62 87 0.0 0.9 0.00 0.00 0.00 67 1027.9
20260506111019 62 87 0.0 0.9 0.00 0.00 0.00 68 1027.9
20260506110819 62 72 0.0 0.9 0.00 0.00 0.00 67 1027.9
20260506110618 62 72 0.0 0.9 0.00 0.00 0.00 67 1027.9
20260506110418 62 72 0.0 0.9 0.00 0.00 0.00 67 1027.9
20260506110217 62 72 0.0 0.9 0.00 0.00 0.00 67 1027.8
20260506110019 62 72 0.0 0.9 0.00 0.00 0.00 67 1027.9
20260506105816 63 72 0.0 0.9 0.00 0.00 0.00 67 1027.9
20260506105613 63 72 0.0 0.9 0.00 0.00 0.00 67 1027.8
20260506105413 63 72 0.0 0.9 0.00 0.00 0.00 67 1027.9
20260506105213 63 72 0.0 0.9 0.00 0.00 0.00 66 1027.9
20260506105012 63 72 0.0 0.9 0.00 0.00 0.00 66 1027.7
20260506104811 63 72 0.0 0.9 0.00 0.00 0.00 66 1027.8
20260506104611 63 72 0.0 0.9 0.00 0.00 0.00 66 1027.8
20260506104410 63 72 0.0 0.9 0.00 0.00 0.00 66 1027.7
20260506104210 63 72 0.0 0.9 0.00 0.00 0.00 66 1027.7
20260506104009 63 72 0.0 0.9 0.00 0.00 0.00 66 1027.7
20260506103809 63 72 0.0 0.9 0.00 0.00 0.00 66 1027.7
20260506103609 64 72 0.0 0.9 0.00 0.00 0.00 65 1027.7
20260506103408 64 72 0.0 0.9 0.00 0.00 0.00 65 1027.7
20260506103208 64 72 0.0 0.9 0.00 0.00 0.00 65 1027.7
20260506103008 64 72 0.0 0.9 0.00 0.00 0.00 65 1027.7
20260506102808 64 72 0.0 0.9 0.00 0.00 0.00 65 1027.6
20260506102606 64 72 0.0 0.9 0.00 0.00 0.00 64 1027.6
20260506102406 64 72 0.0 0.9 0.00 0.00 0.00 64 1027.6
20260506102206 65 72 0.0 0.9 0.00 0.00 0.00 63 1027.7
20260506102005 65 72 0.0 0.0 0.00 0.00 0.00 63 1027.6
20260506101805 65 72 0.0 0.0 0.00 0.00 0.00 62 1027.6
20260506101603 65 72 0.0 0.0 0.00 0.00 0.00 62 1027.6
20260506101402 65 72 0.0 0.0 0.00 0.00 0.00 62 1027.6
20260506101202 65 72 0.0 0.9 0.00 0.00 0.00 61 1027.6
20260506101002 66 72 0.0 0.9 0.00 0.00 0.00 61 1027.5
20260506100802 66 72 0.0 0.9 0.00 0.00 0.00 60 1027.5
20260506100602 66 72 0.0 0.9 0.00 0.00 0.00 60 1027.4
20260506100402 66 72 0.0 0.9 0.00 0.00 0.00 60 1027.5
20260506100202 66 72 0.0 0.0 0.00 0.00 0.00 59 1027.4
20260506100002 66 72 0.0 0.9 0.00 0.00 0.00 59 1027.3
20260506095802 67 72 0.0 0.9 0.00 0.00 0.00 58 1027.4
20260506095601 67 72 0.0 0.9 0.00 0.00 0.00 58 1027.3
20260506095403 67 72 0.0 0.9 0.00 0.00 0.00 58 1027.4
20260506095201 67 72 0.0 0.9 0.00 0.00 0.00 58 1027.3
20260506095003 67 72 0.0 1.7 0.00 0.00 0.00 57 1027.3
20260506094801 67 72 0.0 1.7 0.00 0.00 0.00 57 1027.1
20260506094602 68 72 0.9 1.7 0.00 0.00 0.00 57 1027.2
20260506094402 68 72 0.0 1.7 0.00 0.00 0.00 57 1027.2
20260506094202 68 70 0.9 1.7 0.00 0.00 0.00 57 1027.2
20260506094002 68 70 0.9 2.6 0.00 0.00 0.00 57 1027.1
20260506093802 68 70 0.0 2.6 0.00 0.00 0.00 56 1027.1
20260506093602 68 70 0.0 2.6 0.00 0.00 0.00 56 1027.1
20260506093402 68 70 0.0 2.6 0.00 0.00 0.00 56 1027.1
20260506093202 68 70 0.0 2.6 0.00 0.00 0.00 56 1027.1
20260506093002 69 70 0.0 2.6 0.00 0.00 0.00 56 1027.0
20260506092802 69 70 0.0 2.6 0.00 0.00 0.00 55 1027.0
20260506092602 69 70 0.0 2.6 0.00 0.00 0.00 55 1027.0
20260506092402 69 70 0.0 2.6 0.00 0.00 0.00 55 1026.9
20260506092202 69 70 0.9 2.6 0.00 0.00 0.00 55 1027.0
20260506092003 69 73 0.0 1.7 0.00 0.00 0.00 55 1026.9
20260506091802 69 73 0.0 1.7 0.00 0.00 0.00 55 1026.8
20260506091602 69 73 0.9 2.6 0.00 0.00 0.00 54 1026.9
20260506091402 70 73 0.9 2.6 0.00 0.00 0.00 54 1026.8
20260506091202 70 69 0.9 2.6 0.00 0.00 0.00 54 1026.9
20260506091002 70 52 0.0 6.1 0.00 0.00 0.00 54 1026.8
20260506090802 70 75 0.9 6.1 0.00 0.00 0.00 54 1026.8
20260506090602 70 77 0.9 6.1 0.00 0.00 0.00 53 1026.8
20260506090402 70 53 0.9 6.1 0.00 0.00 0.00 53 1026.8
20260506090202 70 53 3.5 6.1 0.00 0.00 0.00 53 1026.9
20260506090003 70 113 1.7 3.5 0.00 0.00 0.00 53 1026.8
20260506085802 71 178 0.9 2.6 0.00 0.00 0.00 54 1026.8
20260506085602 71 178 0.9 2.6 0.00 0.00 0.00 54 1026.8
20260506085402 71 61 0.9 2.6 0.00 0.00 0.00 54 1026.8
20260506085202 71 59 1.7 2.6 0.00 0.00 0.00 54 1026.8
20260506085002 71 51 0.9 2.6 0.00 0.00 0.00 54 1026.8
20260506084802 71 51 0.9 2.6 0.00 0.00 0.00 53 1026.8
20260506084602 71 51 0.9 2.6 0.00 0.00 0.00 53 1026.8
20260506084402 71 49 0.9 3.5 0.00 0.00 0.00 53 1026.8
20260506084201 71 49 0.9 3.5 0.00 0.00 0.00 53 1026.8
20260506084002 71 49 0.9 3.5 0.00 0.00 0.00 53 1026.8
20260506083802 71 49 0.9 3.5 0.00 0.00 0.00 53 1026.8
20260506083602 71 49 0.9 3.5 0.00 0.00 0.00 53 1026.8
20260506083402 71 75 0.9 2.6 0.00 0.00 0.00 53 1026.8
20260506083201 72 56 1.7 2.6 0.00 0.00 0.00 52 1026.8
20260506083003 72 72 0.9 2.6 0.00 0.00 0.00 52 1026.8
20260506082803 72 83 0.9 2.6 0.00 0.00 0.00 52 1026.8
20260506082602 72 61 0.9 2.6 0.00 0.00 0.00 52 1026.8
20260506082403 72 86 0.9 2.6 0.00 0.00 0.00 52 1026.8
20260506082202 72 87 0.9 3.5 0.00 0.00 0.00 52 1026.7
20260506082002 72 86 0.9 3.5 0.00 0.00 0.00 51 1026.8
20260506081802 72 82 1.7 3.5 0.00 0.00 0.00 51 1026.8
20260506081602 73 113 1.7 3.5 0.00 0.00 0.00 51 1026.8
20260506081401 73 124 0.9 3.5 0.00 0.00 0.00 51 1026.8
20260506081201 73 103 0.0 3.5 0.00 0.00 0.00 51 1026.7
20260506081000 73 103 1.7 3.5 0.00 0.00 0.00 51 1026.8
20260506080801 73 86 1.7 3.5 0.00 0.00 0.00 51 1026.8
20260506080601 73 84 1.7 2.6 0.00 0.00 0.00 51 1026.7
20260506080351 73 84 1.7 2.6 0.00 0.00 0.00 51 1026.7
20260506080149 73 83 0.9 2.6 0.00 0.00 0.00 50 1026.7
20260506073347 76 108 1.7 6.1 0.00 0.00 0.00 48 1026.7
20260506073145 76 103 0.9 6.1 0.00 0.00 0.00 48 1026.7
20260506072945 76 103 0.9 6.1 0.00 0.00 0.00 48 1026.7
20260506072745 76 103 1.7 6.1 0.00 0.00 0.00 47 1026.7
20260506072545 76 69 2.6 6.1 0.00 0.00 0.00 47 1026.6
20260506072346 76 111 0.9 3.5 0.00 0.00 0.00 48 1026.7
20260506072145 76 52 1.7 3.5 0.00 0.00 0.00 48 1026.7
20260506071946 76 127 0.9 3.5 0.00 0.00 0.00 48 1026.7
20260506071746 76 115 1.7 4.3 0.00 0.00 0.00 49 1026.6
20260506071545 76 121 1.7 4.3 0.00 0.00 0.00 48 1026.6
20260506071345 76 99 1.7 5.2 0.00 0.00 0.00 49 1026.6
20260506071146 76 99 1.7 5.2 0.00 0.00 0.00 49 1026.6
20260506070946 76 96 1.7 5.2 0.00 0.00 0.00 48 1026.6
20260506070745 76 79 2.6 5.2 0.00 0.00 0.00 48 1026.7
20260506070545 76 73 1.7 5.2 0.00 0.00 0.00 48 1026.7
20260506070345 76 90 1.7 3.5 0.00 0.00 0.00 48 1026.6
20260506070146 76 101 1.7 4.3 0.00 0.00 0.00 48 1026.8
20260506062344 76 72 1.7 4.3 0.00 0.00 0.00 49 1026.7
20260506062144 76 70 2.6 4.3 0.00 0.00 0.00 48 1026.6
20260506061944 76 65 1.7 5.2 0.00 0.00 0.00 48 1026.6
20260506061744 76 87 1.7 5.2 0.00 0.00 0.00 48 1026.7
20260506061544 76 73 2.6 5.2 0.00 0.00 0.00 47 1026.6
20260506061344 77 108 2.6 5.2 0.00 0.00 0.00 47 1026.7
20260506061144 77 46 3.5 5.2 0.00 0.00 0.00 47 1026.7
20260506060944 77 101 1.7 5.2 0.00 0.00 0.00 48 1026.7
20260506060744 77 148 2.6 5.2 0.00 0.00 0.00 48 1026.7
20260506060545 77 114 2.6 5.2 0.00 0.00 0.00 48 1026.8
20260506060344 76 42 0.9 4.3 0.00 0.00 0.00 49 1026.8
20260506060143 76 31 1.7 4.3 0.00 0.00 0.00 48 1026.8
20260506051331 75 45 2.6 9.6 0.00 0.00 0.00 50 1027.0
20260506051131 75 63 2.6 5.2 0.00 0.00 0.00 51 1026.9
20260506050930 75 53 3.5 5.2 0.00 0.00 0.00 50 1027.0
20260506050729 75 53 2.6 4.3 0.00 0.00 0.00 51 1027.0
20260506050529 75 66 1.7 6.1 0.00 0.00 0.00 51 1027.0
20260506050328 75 65 2.6 6.1 0.00 0.00 0.00 51 1027.0
20260506050128 75 59 2.6 6.1 0.00 0.00 0.00 51 1027.0
20260506045127 76 58 1.7 5.2 0.00 0.00 0.00 51 1027.2
20260506044926 76 97 0.9 5.2 0.00 0.00 0.00 50 1027.2
20260506044725 76 99 2.6 5.2 0.00 0.00 0.00 50 1027.1
20260506044525 76 63 3.5 5.2 0.00 0.00 0.00 49 1027.2
20260506044324 76 66 2.6 4.3 0.00 0.00 0.00 50 1027.3
20260506044124 76 77 1.7 2.6 0.00 0.00 0.00 51 1027.3
20260506043923 75 75 0.9 3.5 0.00 0.00 0.00 52 1027.3
20260506043723 75 75 0.9 3.5 0.00 0.00 0.00 52 1027.3
20260506043519 75 75 1.7 4.3 0.00 0.00 0.00 51 1027.3
20260506043319 75 83 0.9 5.2 0.00 0.00 0.00 52 1027.3
20260506043119 75 83 1.7 5.2 0.00 0.00 0.00 52 1027.4
20260506042918 75 53 2.6 5.2 0.00 0.00 0.00 52 1027.4
20260506042718 74 73 2.6 6.1 0.00 0.00 0.00 52 1027.4
20260506042517 74 63 3.5 6.1 0.00 0.00 0.00 52 1027.5
20260506042317 74 62 1.7 6.1 0.00 0.00 0.00 52 1027.6
20260506042117 74 49 3.5 6.1 0.00 0.00 0.00 51 1027.6
20260506041916 74 73 3.5 6.1 0.00 0.00 0.00 52 1027.6
20260506041716 74 61 1.7 5.2 0.00 0.00 0.00 52 1027.6
20260506041516 74 61 2.6 5.2 0.00 0.00 0.00 52 1027.7
20260506041315 74 13 3.5 6.1 0.00 0.00 0.00 52 1027.7
20260506041115 74 52 3.5 6.1 0.00 0.00 0.00 52 1027.7
20260506040914 74 56 2.6 6.1 0.00 0.00 0.00 52 1027.7
20260506040714 74 73 2.6 6.1 0.00 0.00 0.00 52 1027.8
20260506040513 74 51 3.5 6.1 0.00 0.00 0.00 52 1027.8
20260506040315 74 77 2.6 5.2 0.00 0.00 0.00 53 1027.9
20260506040112 74 65 1.7 5.2 0.00 0.00 0.00 53 1027.9
20260506035913 74 63 2.6 6.1 0.00 0.00 0.00 53 1027.9
20260506035708 74 68 1.7 6.1 0.00 0.00 0.00 53 1027.9
20260506035508 74 62 1.7 6.1 0.00 0.00 0.00 54 1027.9
20260506035308 73 37 2.6 6.1 0.00 0.00 0.00 54 1027.9
20260506035107 73 34 1.7 6.1 0.00 0.00 0.00 54 1027.9
20260506034907 73 70 3.5 5.2 0.00 0.00 0.00 53 1027.9
20260506034707 73 22 2.6 5.2 0.00 0.00 0.00 54 1028.0
20260506034506 73 87 2.6 8.7 0.00 0.00 0.00 54 1028.0
20260506034306 73 55 2.6 8.7 0.00 0.00 0.00 55 1028.0
20260506034105 73 62 2.6 8.7 0.00 0.00 0.00 54 1028.0
20260506033905 73 73 3.5 8.7 0.00 0.00 0.00 54 1028.1
20260506033705 73 46 2.6 8.7 0.00 0.00 0.00 54 1028.1
20260506033504 73 89 2.6 7.8 0.00 0.00 0.00 54 1028.0
20260506033305 73 101 2.6 6.1 0.00 0.00 0.00 54 1028.2
20260506033105 73 87 3.5 6.1 0.00 0.00 0.00 54 1028.2
20260506032906 72 62 3.5 6.1 0.00 0.00 0.00 54 1028.2
20260506032705 72 48 2.6 6.1 0.00 0.00 0.00 55 1028.2
20260506032505 72 86 3.5 6.1 0.00 0.00 0.00 54 1028.2
20260506032306 72 59 1.7 6.1 0.00 0.00 0.00 55 1028.1
20260506032105 72 68 3.5 6.1 0.00 0.00 0.00 54 1028.2
20260506031905 72 59 3.5 6.1 0.00 0.00 0.00 54 1028.2
20260506031700 72 38 3.5 6.1 0.00 0.00 0.00 55 1028.2
20260506031459 72 73 2.6 6.1 0.00 0.00 0.00 56 1028.3
20260506031259 72 62 3.5 6.1 0.00 0.00 0.00 56 1028.2
20260506031059 72 120 2.6 4.3 0.00 0.00 0.00 56 1028.3
20260506030858 72 10 2.6 4.3 0.00 0.00 0.00 56 1028.4
20260506030700 72 65 1.7 3.5 0.00 0.00 0.00 57 1028.3
20260506030457 72 62 2.6 4.3 0.00 0.00 0.00 57 1028.4
20260506030254 71 59 2.6 6.1 0.00 0.00 0.00 57 1028.4
20260506030053 71 90 1.7 6.1 0.00 0.00 0.00 58 1028.3
20260506025846 71 73 2.6 6.1 0.00 0.00 0.00 57 1028.4
20260506025643 71 63 2.6 6.1 0.00 0.00 0.00 57 1028.4
20260506025444 71 59 3.5 6.1 0.00 0.00 0.00 57 1028.4
20260506025244 71 66 2.6 5.2 0.00 0.00 0.00 58 1028.4
20260506025043 71 141 1.7 6.1 0.00 0.00 0.00 58 1028.4
20260506024843 71 53 2.6 6.1 0.00 0.00 0.00 58 1028.4
20260506024642 70 75 2.6 6.1 0.00 0.00 0.00 58 1028.5
20260506024442 70 41 3.5 6.1 0.00 0.00 0.00 58 1028.4
20260506024242 70 49 3.5 6.1 0.00 0.00 0.00 58 1028.4
20260506024042 70 70 2.6 5.2 0.00 0.00 0.00 59 1028.4
20260506023842 70 77 2.6 7.8 0.00 0.00 0.00 58 1028.5
20260506023642 70 48 3.5 7.8 0.00 0.00 0.00 58 1028.4
20260506023443 70 79 3.5 7.8 0.00 0.00 0.00 58 1028.4
20260506023242 70 48 3.5 7.8 0.00 0.00 0.00 58 1028.5
20260506023041 70 72 3.5 7.8 0.00 0.00 0.00 58 1028.5
20260506022842 70 20 3.5 7.8 0.00 0.00 0.00 59 1028.5
20260506022642 70 63 2.6 7.8 0.00 0.00 0.00 59 1028.6
20260506022442 70 70 2.6 7.8 0.00 0.00 0.00 59 1028.5
20260506022242 70 69 2.6 7.8 0.00 0.00 0.00 59 1028.6
20260506022042 69 46 3.5 7.8 0.00 0.00 0.00 59 1028.6
20260506021841 69 80 1.7 5.2 0.00 0.00 0.00 61 1028.6
20260506021641 69 89 1.7 5.2 0.00 0.00 0.00 62 1028.6
20260506021442 69 59 0.9 5.2 0.00 0.00 0.00 62 1028.7
20260506021241 69 59 1.7 5.2 0.00 0.00 0.00 62 1028.7
20260506021041 68 61 2.6 5.2 0.00 0.00 0.00 62 1028.7
20260506020842 68 72 0.9 5.2 0.00 0.00 0.00 63 1028.7
20260506020643 68 72 1.7 5.2 0.00 0.00 0.00 63 1028.7
20260506020440 68 87 1.7 5.2 0.00 0.00 0.00 62 1028.7
20260506020235 68 75 2.6 5.2 0.00 0.00 0.00 63 1028.7
20260506020034 67 63 1.7 6.1 0.00 0.00 0.00 64 1028.8
20260506015833 67 165 1.7 6.1 0.00 0.00 0.00 63 1028.8
20260506015633 67 104 2.6 6.1 0.00 0.00 0.00 64 1028.8
20260506015433 67 66 1.7 6.1 0.00 0.00 0.00 64 1028.8
20260506015232 67 29 2.6 6.1 0.00 0.00 0.00 65 1028.7
20260506015032 67 39 1.7 5.2 0.00 0.00 0.00 65 1028.8
20260506014832 66 77 2.6 3.5 0.00 0.00 0.00 66 1028.8
20260506014630 66 115 1.7 6.1 0.00 0.00 0.00 66 1028.8
20260506014431 66 115 1.7 6.1 0.00 0.00 0.00 67 1028.8
20260506014231 66 107 0.9 6.1 0.00 0.00 0.00 67 1028.8
20260506014031 65 107 0.9 6.1 0.00 0.00 0.00 67 1028.8
20260506013831 65 65 1.7 6.1 0.00 0.00 0.00 68 1028.8
20260506013631 65 59 1.7 4.3 0.00 0.00 0.00 67 1028.9
20260506013431 65 117 1.7 3.5 0.00 0.00 0.00 68 1028.9
20260506013232 65 106 0.9 5.2 0.00 0.00 0.00 69 1028.8
20260506013031 64 106 0.9 5.2 0.00 0.00 0.00 69 1028.9
20260506012831 64 106 1.7 5.2 0.00 0.00 0.00 70 1028.9
20260506012631 64 66 1.7 5.2 0.00 0.00 0.00 70 1028.9
20260506012431 64 72 2.6 5.2 0.00 0.00 0.00 70 1028.9
20260506012231 63 86 1.7 5.2 0.00 0.00 0.00 71 1028.9
20260506012031 63 59 1.7 5.2 0.00 0.00 0.00 71 1028.8
20260506011831 63 51 1.7 5.2 0.00 0.00 0.00 72 1028.9
20260506011631 62 79 0.9 5.2 0.00 0.00 0.00 72 1028.9
20260506011431 62 79 1.7 5.2 0.00 0.00 0.00 73 1028.9
20260506011232 62 58 2.6 5.2 0.00 0.00 0.00 73 1028.9
20260506011031 61 59 1.7 4.3 0.00 0.00 0.00 74 1028.9
20260506010831 61 53 1.7 4.3 0.00 0.00 0.00 75 1028.9
20260506010631 60 53 2.6 5.2 0.00 0.00 0.00 75 1028.8
20260506010431 60 80 1.7 5.2 0.00 0.00 0.00 76 1028.9
20260506010230 60 77 1.7 5.2 0.00 0.00 0.00 76 1028.8
20260506010031 60 77 2.6 5.2 0.00 0.00 0.00 76 1028.9
20260506005830 59 66 2.6 5.2 0.00 0.00 0.00 77 1028.9
20260506005631 59 94 1.7 4.3 0.00 0.00 0.00 77 1028.9
20260506005431 59 94 1.7 4.3 0.00 0.00 0.00 77 1028.9
20260506005231 59 93 1.7 3.5 0.00 0.00 0.00 78 1028.8
20260506005031 58 92 1.7 5.2 0.00 0.00 0.00 78 1028.8
20260506004830 58 42 1.7 6.1 0.00 0.00 0.00 79 1028.8
20260506004629 58 41 1.7 6.1 0.00 0.00 0.00 79 1028.8
20260506004430 58 55 1.7 6.1 0.00 0.00 0.00 79 1028.8
20260506004228 58 61 1.7 6.1 0.00 0.00 0.00 80 1028.8
20260506004029 57 89 2.6 6.1 0.00 0.00 0.00 80 1028.8
20260506003828 57 69 1.7 3.5 0.00 0.00 0.00 81 1028.7
20260506003625 57 63 1.7 3.5 0.00 0.00 0.00 81 1028.7
20260506003424 57 69 0.9 2.6 0.00 0.00 0.00 81 1028.6
20260506003224 57 173 1.7 2.6 0.00 0.00 0.00 82 1028.6
20260506003023 56 99 0.9 2.6 0.00 0.00 0.00 82 1028.5
20260506002823 56 100 0.9 2.6 0.00 0.00 0.00 82 1028.4
20260506002623 56 76 0.9 3.5 0.00 0.00 0.00 83 1028.3
20260506002422 56 76 1.7 3.5 0.00 0.00 0.00 83 1028.3
20260506002221 56 75 0.0 3.5 0.00 0.00 0.00 83 1028.2
20260506002021 55 77 0.9 3.5 0.00 0.00 0.00 83 1028.2
20260506001820 55 41 1.7 3.5 0.00 0.00 0.00 83 1028.2
20260506001620 55 89 0.9 2.6 0.00 0.00 0.00 83 1028.1
20260506001421 55 48 0.9 2.6 0.00 0.00 0.00 83 1028.1
20260506001220 55 48 0.9 2.6 0.00 0.00 0.00 83 1028.1
20260506001019 55 48 0.9 2.6 0.00 0.00 0.00 83 1028.1
20260506000819 55 48 0.9 2.6 0.00 0.00 0.00 83 1028.1
20260506000618 55 45 0.9 2.6 0.00 0.00 0.00 84 1028.1
20260506000418 54 38 0.9 2.6 0.00 0.00 0.00 84 1028.1
20260506000219 54 80 0.9 2.6 0.00 0.00 0.00 84 1028.1
20260506000017 54 51 0.9 2.6 0.00 0.00 0.00 84 1028.1
20260505235804 54 120 0.0 1.7 0.00 0.00 0.00 84 1028.2
20260505235604 54 151 0.9 1.7 0.00 0.00 0.00 84 1028.2
20260505235404 54 151 0.0 0.9 0.00 0.00 0.00 84 1028.2
20260505235204 54 151 0.0 0.9 0.00 0.00 0.00 84 1028.1
20260505235004 54 151 0.0 2.6 0.00 0.00 0.00 84 1028.1
20260505234804 54 151 0.0 2.6 0.00 0.00 0.00 84 1028.1
20260505234605 54 151 0.0 2.6 0.00 0.00 0.00 84 1028.1
20260505234404 54 151 0.0 2.6 0.00 0.00 0.00 84 1028.0
20260505234205 54 183 0.9 2.6 0.00 0.00 0.00 84 1028.0
20260505234004 54 49 0.0 1.7 0.00 0.00 0.00 84 1028.0
20260505233805 54 49 0.9 1.7 0.00 0.00 0.00 84 1028.0
20260505233603 54 45 0.0 1.7 0.00 0.00 0.00 84 1027.9
20260505233404 54 45 0.0 1.7 0.00 0.00 0.00 84 1027.9
20260505233205 54 45 0.0 1.7 0.00 0.00 0.00 83 1027.9
20260505233004 54 45 0.0 0.9 0.00 0.00 0.00 83 1027.8
20260505232804 54 45 0.0 0.9 0.00 0.00 0.00 83 1027.8
20260505232604 54 45 0.0 0.9 0.00 0.00 0.00 83 1027.7
20260505232404 54 45 0.0 1.7 0.00 0.00 0.00 83 1027.7
20260505232204 54 45 0.0 1.7 0.00 0.00 0.00 83 1027.6
20260505232005 54 45 0.0 1.7 0.00 0.00 0.00 83 1027.6
20260505231804 54 45 0.0 1.7 0.00 0.00 0.00 83 1027.6
20260505231602 54 45 0.0 1.7 0.00 0.00 0.00 83 1027.5
20260505231401 54 45 0.0 0.9 0.00 0.00 0.00 83 1027.4
20260505231201 54 45 0.0 0.9 0.00 0.00 0.00 83 1027.5
20260505231000 54 45 0.0 0.9 0.00 0.00 0.00 83 1027.4
20260505230800 54 45 0.0 0.9 0.00 0.00 0.00 83 1027.5
20260505230559 54 45 0.0 1.7 0.00 0.00 0.00 83 1027.5
20260505230359 54 45 0.0 1.7 0.00 0.00 0.00 83 1027.3
20260505230158 54 45 0.0 1.7 0.00 0.00 0.00 82 1027.3
20260505225958 54 45 0.0 1.7 0.00 0.00 0.00 82 1027.3
20260505225757 54 45 0.0 1.7 0.00 0.00 0.00 82 1027.3
20260505225557 54 45 0.0 2.6 0.00 0.00 0.00 82 1027.2
20260505225356 54 44 0.0 2.6 0.00 0.00 0.00 82 1027.2
20260505225156 54 44 0.0 2.6 0.00 0.00 0.00 82 1027.1
20260505224955 54 44 0.0 2.6 0.00 0.00 0.00 82 1027.2
20260505224755 54 44 0.9 2.6 0.00 0.00 0.00 82 1027.1
20260505224555 54 45 0.0 2.6 0.00 0.00 0.00 82 1027.0
20260505224355 54 44 0.0 3.5 0.00 0.00 0.00 82 1027.1
20260505224153 54 44 0.0 3.5 0.00 0.00 0.00 82 1027.1
20260505223951 54 49 0.0 3.5 0.00 0.00 0.00 82 1027.1
20260505223750 54 49 0.9 3.5 0.00 0.00 0.00 82 1027.2
20260505223550 54 103 0.0 1.7 0.00 0.00 0.00 81 1027.1
20260505223350 54 103 0.0 1.7 0.00 0.00 0.00 81 1027.1
20260505223149 54 103 0.0 0.9 0.00 0.00 0.00 81 1027.1
20260505222948 54 103 0.0 1.7 0.00 0.00 0.00 81 1027.1
20260505222749 55 103 0.0 1.7 0.00 0.00 0.00 81 1027.0
20260505222548 55 103 0.0 2.6 0.00 0.00 0.00 81 1027.0
20260505222347 55 103 0.0 2.6 0.00 0.00 0.00 81 1027.0
20260505222147 55 103 0.0 2.6 0.00 0.00 0.00 81 1026.9
20260505221947 55 103 0.9 2.6 0.00 0.00 0.00 81 1027.0
20260505221746 55 104 0.0 2.6 0.00 0.00 0.00 81 1026.9
20260505221546 55 104 0.0 2.6 0.00 0.00 0.00 81 1026.9
20260505221345 55 104 0.0 2.6 0.00 0.00 0.00 81 1027.0
20260505221145 55 104 0.9 2.6 0.00 0.00 0.00 81 1026.8
20260505220944 55 104 0.9 1.7 0.00 0.00 0.00 81 1026.9
20260505220743 55 104 0.9 2.6 0.00 0.00 0.00 81 1026.8
20260505220543 55 104 0.0 2.6 0.00 0.00 0.00 81 1026.9
20260505220342 55 104 0.9 2.6 0.00 0.00 0.00 81 1026.9
20260505220141 55 104 0.0 2.6 0.00 0.00 0.00 81 1026.8
20260505215936 55 104 0.9 2.6 0.00 0.00 0.00 81 1026.9
20260505215736 55 106 0.9 1.7 0.00 0.00 0.00 80 1026.8
20260505215536 55 107 0.0 1.7 0.00 0.00 0.00 80 1026.8
20260505215336 55 106 0.0 2.6 0.00 0.00 0.00 80 1026.8
20260505215136 55 106 0.0 2.6 0.00 0.00 0.00 80 1026.8
20260505214936 55 106 0.9 2.6 0.00 0.00 0.00 80 1026.7
20260505214736 55 106 0.9 2.6 0.00 0.00 0.00 80 1026.8
20260505214535 55 106 1.7 2.6 0.00 0.00 0.00 80 1026.8
20260505214335 55 107 0.9 2.6 0.00 0.00 0.00 80 1026.8
20260505214136 55 107 0.9 2.6 0.00 0.00 0.00 80 1026.8
20260505213935 55 107 0.0 3.5 0.00 0.00 0.00 80 1026.8
20260505213735 55 107 1.7 3.5 0.00 0.00 0.00 80 1026.7
20260505213536 55 107 0.9 3.5 0.00 0.00 0.00 80 1026.7
20260505213337 55 62 1.7 3.5 0.00 0.00 0.00 80 1026.6
20260505213135 55 61 1.7 3.5 0.00 0.00 0.00 80 1026.6
20260505212936 55 87 0.9 3.5 0.00 0.00 0.00 80 1026.6
20260505212735 55 87 0.9 3.5 0.00 0.00 0.00 80 1026.5
20260505212534 55 66 1.7 3.5 0.00 0.00 0.00 80 1026.5
20260505212335 55 103 0.9 3.5 0.00 0.00 0.00 80 1026.5
20260505212135 55 103 0.9 3.5 0.00 0.00 0.00 80 1026.5
20260505211936 55 103 0.9 2.6 0.00 0.00 0.00 80 1026.5
20260505211734 55 103 0.9 2.6 0.00 0.00 0.00 80 1026.5
20260505211534 55 103 0.9 2.6 0.00 0.00 0.00 80 1026.5
20260505211334 56 103 1.7 2.6 0.00 0.00 0.00 80 1026.5
20260505211135 56 103 1.7 2.6 0.00 0.00 0.00 80 1026.6
20260505210934 56 103 0.9 2.6 0.00 0.00 0.00 80 1026.5
20260505210734 56 103 0.9 2.6 0.00 0.00 0.00 80 1026.5
20260505210538 56 104 0.9 2.6 0.00 0.00 0.00 80 1026.5
20260505210334 56 113 0.9 5.2 0.00 0.00 0.00 79 1026.5
20260505210137 56 25 0.9 5.2 0.00 0.00 0.00 79 1026.4
20260505205934 56 25 0.9 5.2 0.00 0.00 0.00 79 1026.4
20260505205734 56 25 0.9 5.2 0.00 0.00 0.00 79 1026.4
20260505205534 56 25 1.7 5.2 0.00 0.00 0.00 80 1026.4
20260505205333 56 106 0.9 2.6 0.00 0.00 0.00 79 1026.5
20260505205133 56 106 1.7 2.6 0.00 0.00 0.00 80 1026.4
20260505204929 56 106 0.9 3.5 0.00 0.00 0.00 80 1026.4
20260505204706 56 107 0.0 3.5 0.00 0.00 0.00 80 1026.4
20260505204505 56 107 0.9 3.5 0.00 0.00 0.00 79 1026.4
20260505204305 56 107 1.7 3.5 0.00 0.00 0.00 79 1026.3
20260505204106 56 107 0.9 2.6 0.00 0.00 0.00 79 1026.3
20260505203904 56 96 0.9 3.5 0.00 0.00 0.00 79 1026.4
20260505203705 56 96 0.0 3.5 0.00 0.00 0.00 79 1026.3
20260505203507 56 96 0.9 3.5 0.00 0.00 0.00 79 1026.3
20260505203306 56 96 0.9 4.3 0.00 0.00 0.00 79 1026.3
20260505203105 56 96 1.7 4.3 0.00 0.00 0.00 79 1026.3
20260505202905 56 79 0.9 4.3 0.00 0.00 0.00 79 1026.2
20260505202705 56 77 0.9 4.3 0.00 0.00 0.00 79 1026.3
20260505202505 56 77 0.9 4.3 0.00 0.00 0.00 79 1026.2
20260505202306 56 124 0.9 2.6 0.00 0.00 0.00 79 1026.2
20260505202104 56 124 0.9 2.6 0.00 0.00 0.00 79 1026.2
20260505201904 56 124 0.9 2.6 0.00 0.00 0.00 79 1026.1
20260505201702 56 125 0.9 2.6 0.00 0.00 0.00 79 1026.2
20260505201455 56 125 0.9 2.6 0.00 0.00 0.00 79 1026.2
20260505201255 56 125 0.0 2.6 0.00 0.00 0.00 79 1026.2
20260505201055 56 125 0.9 2.6 0.00 0.00 0.00 79 1026.1
20260505200854 56 125 0.9 2.6 0.00 0.00 0.00 79 1026.1
20260505200655 56 134 0.0 2.6 0.00 0.00 0.00 79 1026.1
20260505200454 56 134 0.9 2.6 0.00 0.00 0.00 79 1026.1
20260505200254 56 134 0.9 2.6 0.00 0.00 0.00 79 1026.0
20260505200053 56 135 0.0 2.6 0.00 0.00 0.00 79 1026.1
20260505195852 56 135 0.0 2.6 0.00 0.00 0.00 79 1026.2
20260505195651 56 135 0.9 2.6 0.00 0.00 0.00 79 1026.1
20260505195451 56 137 0.0 2.6 0.00 0.00 0.00 79 1026.1
20260505195251 56 137 0.0 2.6 0.00 0.00 0.00 79 1026.1
20260505195051 56 137 0.0 2.6 0.00 0.00 0.00 79 1026.1
20260505194850 56 137 0.0 2.6 0.00 0.00 0.00 78 1026.1
20260505194649 56 137 0.9 1.7 0.00 0.00 0.00 78 1026.1
20260505194449 56 138 0.0 1.7 0.00 0.00 0.00 78 1026.2
20260505194248 56 138 0.0 1.7 0.00 0.00 0.00 78 1026.1
20260505194049 56 138 0.0 1.7 0.00 0.00 0.00 78 1026.1
20260505193844 56 138 0.0 1.7 0.00 0.00 0.00 78 1026.2
20260505193645 56 138 0.0 1.7 0.00 0.00 0.00 78 1026.2
20260505193444 56 138 0.0 1.7 0.00 0.00 0.00 78 1026.1
20260505193243 56 138 0.0 1.7 0.00 0.00 0.00 78 1026.2
20260505193044 56 138 0.0 1.7 0.00 0.00 0.00 78 1026.2
20260505192843 56 138 0.0 1.7 0.00 0.00 0.00 78 1026.2
20260505192642 56 138 0.9 1.7 0.00 0.00 0.00 78 1026.2
20260505192442 56 138 0.9 1.7 0.00 0.00 0.00 78 1026.1
20260505192241 56 166 0.0 1.7 0.00 0.00 0.00 78 1026.2
20260505192041 56 166 0.0 1.7 0.00 0.00 0.00 77 1026.2
20260505191841 56 166 0.0 1.7 0.00 0.00 0.00 77 1026.2
20260505191641 56 168 0.0 1.7 0.00 0.00 0.00 77 1026.2
20260505191440 56 168 0.9 1.7 0.00 0.00 0.00 77 1026.2
20260505191239 56 134 0.0 1.7 0.00 0.00 0.00 77 1026.1
20260505191039 56 134 0.0 1.7 0.00 0.00 0.00 76 1026.1
20260505190839 56 134 0.0 2.6 0.00 0.00 0.00 76 1026.1
20260505190638 56 134 0.0 2.6 0.00 0.00 0.00 76 1026.1
20260505190437 56 134 0.0 2.6 0.00 0.00 0.00 76 1026.1
20260505190237 57 134 0.0 2.6 0.00 0.00 0.00 76 1026.0
20260505190037 57 134 0.0 2.6 0.00 0.00 0.00 76 1026.0
20260505185805 57 134 0.0 1.7 0.00 0.00 0.00 76 1026.0
20260505185605 57 134 0.0 1.7 0.00 0.00 0.00 76 1026.0
20260505185405 57 134 0.0 1.7 0.00 0.00 0.00 76 1026.0
20260505185205 57 134 0.0 1.7 0.00 0.00 0.00 75 1026.0
20260505185006 57 134 0.0 1.7 0.00 0.00 0.00 76 1026.0
20260505184804 57 134 0.0 1.7 0.00 0.00 0.00 75 1026.0
20260505184605 57 134 0.0 1.7 0.00 0.00 0.00 75 1026.0
20260505184405 57 134 0.0 1.7 0.00 0.00 0.00 75 1026.1
20260505184205 57 134 0.0 1.7 0.00 0.00 0.00 75 1026.1
20260505184006 57 134 0.9 1.7 0.00 0.00 0.00 75 1026.1
20260505183807 57 134 0.9 2.6 0.00 0.00 0.00 75 1026.1
20260505183605 57 137 0.9 2.6 0.00 0.00 0.00 75 1026.1
20260505183405 57 135 0.9 2.6 0.00 0.00 0.00 74 1026.1
20260505183204 57 135 0.0 2.6 0.00 0.00 0.00 74 1026.2
20260505183005 57 135 0.9 2.6 0.00 0.00 0.00 74 1026.2
20260505182805 57 135 0.0 1.7 0.00 0.00 0.00 74 1026.2
20260505182604 58 135 0.0 1.7 0.00 0.00 0.00 74 1026.2
20260505182405 58 135 0.0 1.7 0.00 0.00 0.00 74 1026.3
20260505182142 58 135 0.0 1.7 0.00 0.00 0.00 74 1026.3
20260505181941 58 135 0.0 1.7 0.00 0.00 0.00 74 1026.2
20260505181740 58 135 0.0 1.7 0.00 0.00 0.00 74 1026.2
20260505181541 58 135 0.0 1.7 0.00 0.00 0.00 74 1026.2
20260505181339 58 135 0.9 3.5 0.00 0.00 0.00 74 1026.1
20260505181140 58 135 0.9 3.5 0.00 0.00 0.00 74 1026.2
20260505180935 58 84 0.9 3.5 0.00 0.00 0.00 74 1026.2
20260505180736 58 86 0.9 3.5 0.00 0.00 0.00 74 1026.1
20260505180535 58 76 0.9 3.5 0.00 0.00 0.00 74 1026.2
20260505180335 58 75 1.7 2.6 0.00 0.00 0.00 74 1026.1
20260505180133 58 44 0.9 1.7 0.00 0.00 0.00 74 1026.1
20260505175935 58 32 0.0 7.8 0.00 0.00 0.00 74 1026.2
20260505175734 58 32 0.9 7.8 0.00 0.00 0.00 74 1026.1
20260505175533 58 32 0.0 7.8 0.00 0.00 0.00 74 1026.1
20260505175330 58 32 0.9 7.8 0.00 0.00 0.00 74 1026.1
20260505175129 58 32 1.7 7.8 0.00 0.00 0.00 74 1026.1
20260505174929 58 130 0.9 2.6 0.00 0.00 0.00 74 1026.1
20260505174729 58 130 1.7 2.6 0.00 0.00 0.00 74 1026.0
20260505174529 58 73 1.7 2.6 0.00 0.00 0.00 75 1026.0
20260505174329 58 70 0.9 2.6 0.00 0.00 0.00 75 1026.0
20260505174129 58 70 1.7 2.6 0.00 0.00 0.00 75 1026.0
20260505173929 58 70 0.9 2.6 0.00 0.00 0.00 75 1026.0
20260505173729 57 70 0.9 2.6 0.00 0.00 0.00 75 1025.9
20260505173529 57 70 0.9 2.6 0.00 0.00 0.00 76 1025.9
20260505173329 57 65 0.9 4.3 0.00 0.00 0.00 76 1026.0
20260505173129 57 65 1.7 4.3 0.00 0.00 0.00 76 1026.0
20260505172928 57 63 1.7 4.3 0.00 0.00 0.00 77 1026.0
20260505172729 57 114 1.7 4.3 0.00 0.00 0.00 77 1026.0
20260505172527 57 120 1.7 4.3 0.00 0.00 0.00 77 1025.9
20260505172328 56 87 0.9 3.5 0.00 0.00 0.00 78 1025.9
20260505172127 56 86 0.9 3.5 0.00 0.00 0.00 78 1025.9
20260505171927 56 87 1.7 3.5 0.00 0.00 0.00 78 1025.9
20260505171727 56 72 0.9 3.5 0.00 0.00 0.00 78 1025.9
20260505171527 56 63 0.0 2.6 0.00 0.00 0.00 78 1025.9
20260505171328 56 62 0.0 2.6 0.00 0.00 0.00 78 1025.9
20260505171129 56 62 0.9 2.6 0.00 0.00 0.00 78 1025.9
20260505170928 56 61 0.9 2.6 0.00 0.00 0.00 78 1025.8
20260505170728 56 100 0.0 1.7 0.00 0.00 0.00 79 1025.9
20260505170528 56 135 0.0 0.0 0.00 0.00 0.00 79 1025.9
20260505170328 55 135 0.0 0.0 0.00 0.00 0.00 79 1025.9
20260505170129 55 137 0.0 0.0 0.00 0.00 0.00 79 1025.9
20260505165928 55 137 0.0 0.0 0.00 0.00 0.00 79 1025.9
20260505165730 55 137 0.0 0.0 0.00 0.00 0.00 79 1025.8
20260505165528 55 137 0.0 0.0 0.00 0.00 0.00 79 1025.9
20260505165328 55 137 0.0 0.0 0.00 0.00 0.00 79 1025.9
20260505165128 55 137 0.0 0.0 0.00 0.00 0.00 78 1025.9
20260505164927 55 137 0.0 0.0 0.00 0.00 0.00 78 1025.8
20260505164727 55 137 0.0 0.0 0.00 0.00 0.00 78 1025.9
20260505164529 55 137 0.0 0.0 0.00 0.00 0.00 78 1025.9
20260505164329 55 137 0.0 0.0 0.00 0.00 0.00 78 1025.9
20260505164128 55 137 0.0 0.0 0.00 0.00 0.00 78 1025.8
20260505163928 55 137 0.0 0.0 0.00 0.00 0.00 79 1025.9
20260505163727 55 137 0.0 0.0 0.00 0.00 0.00 78 1025.8
20260505163527 55 137 0.0 0.0 0.00 0.00 0.00 78 1025.8
20260505163327 55 137 0.0 0.0 0.00 0.00 0.00 78 1025.8
20260505163128 55 137 0.0 0.0 0.00 0.00 0.00 79 1025.8
20260505162929 55 137 0.0 0.0 0.00 0.00 0.00 79 1025.8
20260505162727 55 137 0.0 0.0 0.00 0.00 0.00 79 1025.8
20260505162526 55 137 0.0 0.0 0.00 0.00 0.00 79 1025.8
20260505162327 55 137 0.0 0.0 0.00 0.00 0.00 79 1025.8
20260505162127 55 137 0.0 0.0 0.00 0.00 0.00 79 1025.7
20260505161927 55 137 0.0 0.0 0.00 0.00 0.00 79 1025.7
20260505161727 55 137 0.0 0.0 0.00 0.00 0.00 79 1025.6
20260505161528 55 137 0.0 0.0 0.00 0.00 0.00 80 1025.6
20260505161327 55 137 0.0 0.0 0.00 0.00 0.00 80 1025.6
20260505161128 0 0.0 0.0 0.00 0.00 0.00 1025.6
20260505160928 0 0.0 0.0 0.00 0.00 0.00 1025.6
20260505160725 0 0.0 0.0 0.00 0.00 0.00 1025.5
20260505160527 0 0.0 0.0 0.00 0.00 0.00 1025.6
20260505153304 54 207 0.0 0.9 0.00 0.00 0.00 84 1025.7
20260505153143 54 207 0.0 0.9 0.00 0.00 0.00 84 1025.7
20260505152904 54 207 0.0 0.9 0.00 0.00 0.00 85 1025.7
20260505152700 54 207 0.0 0.9 0.00 0.00 0.00 84 1025.7
20260505152500 54 207 0.0 0.9 0.00 0.00 0.00 85 1025.6
20260505152259 54 207 0.0 0.9 0.00 0.00 0.00 85 1025.6
20260505152100 54 207 0.0 0.0 0.00 0.00 0.00 84 1025.7
20260505151900 54 207 0.0 0.0 0.00 0.00 0.00 84 1025.6
20260505151658 54 207 0.0 0.0 0.00 0.00 0.00 84 1025.6
20260505151458 54 207 0.0 0.0 0.00 0.00 0.00 84 1025.7
20260505151257 54 207 0.0 0.0 0.00 0.00 0.00 84 1025.6
20260505151057 54 207 0.0 0.0 0.00 0.00 0.00 83 1025.6
20260505150856 54 207 0.0 0.0 0.00 0.00 0.00 83 1025.6